Weather in Birobidgan

Russia / Jewish Autonomous Oblast     48°47′40″N   132°55′18″E
temp.,
°C
wind,
m/s
gust,
m/s
humid.,
%
clouds,
%
prec.,
mm/h
press.,
hPa
HPBL,
m
16 april, fri
fri1601:00+3ne225490 0.0 101420
04:00+2ene4761100 0.1 1013228
07:00+1ene51060100 0.3 1013361
10:00+3ene6852100 0.3 1013435
13:00+9e6843100 0.0 10111137
16:00+11ene6746100 0.1 1009478
19:00+8ene71258100 0.5 1008420
22:00+6ene486584 0.8 1010469
17 april, sat
sat1701:00+4nne378177 0.0 1009200
04:00+3ene4880100 0.0 1008230
07:00+2ene388399 0.0 1009282
10:00+5ene457199 0.0 1010687
13:00+3ne2596100 0.4 1011370
16:00+6ssw217648 0.5 1011579
19:00+7ssw33725 0.0 1011365
22:00+5wsw228011 0.0 101336
18 april, sun
sun1801:00+4nnw22865 0.0 101322
04:00+3nnw22915 0.0 101327
07:00+2nne11875 0.0 101310
10:00+8nne23645 0.0 1013551
13:00+12ne24475 0.0 10111334
16:00+15ene34375 0.0 10081612
19:00+15ese11426 0.0 100727
22:00+10e22535 0.0 100819
19 april, mon
mon1901:00+8n22625 0.0 100810
04:00+6nnw22732 0.0 100720
07:00+5nnw22740 0.0 100627
10:00+11nnw12520 0.0 1006463
13:00+15nw15365 0.0 10031932
16:00+17nnw682916 0.0 10012516
19:00+16nnw610366 0.0 10011079
22:00+12nw47555 0.0 1002141
20 april, tue
tue2001:00+7nnw813540 0.0 10051013
04:00+4nw712380 0.0 1007914
07:00+1nw612370 0.0 10091126
10:00+4nw918210 0.0 10111583
13:00+8nw1016180 0.0 10111889
16:00+11nnw813155 0.0 10122012
19:00+10nw49210 0.0 10131397
22:00+6wnw34290 0.0 101667